Charleston, SC

2:20 AM EDT on May 25, 2017 (GMT -0400)
Charleston Executive

Weather History for KJZI - May, 2014

Change the Weather History Date:

Tuesday, May 13, 2014

  Actual Average (KCHS) Record (KCHS)
Temperature  
Mean Temperature 76 °F -  
Max Temperature 84 °F 83 °F 95 °F (2000)
Min Temperature 68 °F 61 °F 44 °F (1941)
Cooling Degree Days 11    
Growing Degree Days 26 (Base 50)    
Moisture  
Dew Point 69 °F    
Average Humidity 78    
Maximum Humidity 94    
Minimum Humidity 55    
Precipitation  
Precipitation 0.00 in - - ()
Sea Level Pressure  
Sea Level Pressure 30.16 in    
Wind  
Wind Speed 3 mph (SSE)    
Max Wind Speed 10 mph    
Max Gust Speed -    
Visibility 9 miles    
Events      
Averages and records for this station are not official NWS values.
T = Trace of Precipitation, MM = Missing Value Source: NWS Daily Summary

Daily Weather History Graph

Daily Weather History Graph

Search for Another Location

Airport or City:

Trip Planner

Search our weather history database for the weather conditions in past years. The results will help you decide how hot, cold, wet, or windy it might be!

Date:

Astronomy

May. 13, 2014 Rise Set
Actual Time 6:22 AM EDT 8:10 PM EDT
Civil Twilight 5:55 AM EDT 8:37 PM EDT
Nautical Twilight 5:23 AM EDT 9:10 PM EDT
Astronomical Twilight 4:48 AM EDT 9:44 PM EDT
Moon 7:13 PM EDT (5/13) 5:32 AM EDT (5/13)
Length of Visible Light 14h 41m
Length of Day
13h 47m
Waxing Gibbous, 98% of the Moon is Illuminated
May 13
Waxing Gibbous
May 14
Full
May 21
Last Quarter
May 28
New
Jun 5
First Quarter

Hourly Weather History & Observations

Time (EDT) Temp. Heat Index Dew Point Humidity Pressure Visibility Wind Dir Wind Speed Gust Speed Precip Events Conditions
12:15 AM 73.4 °F - 71.6 °F 94% 30.17 in 10.0 mi Calm Calm - 0.00 in   Clear
12:35 AM 73.4 °F - 71.6 °F 94% 30.17 in 9.0 mi Calm Calm - 0.00 in   Clear
12:55 AM 73.4 °F - 71.6 °F 94% 30.17 in 10.0 mi Calm Calm - 0.00 in   Clear
1:15 AM 73.4 °F - 71.6 °F 94% 30.16 in 9.0 mi Calm Calm - 0.00 in   Clear
1:35 AM 73.4 °F - 71.6 °F 94% 30.15 in 10.0 mi South 5.8 mph - 0.00 in   Clear
1:55 AM 73.4 °F - 71.6 °F 94% 30.15 in 10.0 mi SSW 8.1 mph - 0.00 in   Clear
2:15 AM 73.4 °F - 71.6 °F 94% 30.15 in 10.0 mi SSW 5.8 mph - 0.00 in   Clear
2:35 AM 73.4 °F - 69.8 °F 88% 30.14 in 10.0 mi SSW 5.8 mph - 0.00 in   Clear
2:55 AM 73.4 °F - 69.8 °F 88% 30.14 in 10.0 mi Calm Calm - 0.00 in   Clear
3:15 AM 73.4 °F - 69.8 °F 88% 30.14 in 10.0 mi Calm Calm - 0.00 in   Clear
3:35 AM 71.6 °F - 69.8 °F 94% 30.14 in 10.0 mi Calm Calm - 0.00 in   Clear
3:55 AM 73.4 °F - 69.8 °F 88% 30.13 in 10.0 mi South 5.8 mph - 0.00 in   Clear
4:15 AM 73.4 °F - 69.8 °F 88% 30.13 in 10.0 mi Calm Calm - 0.00 in   Clear
4:35 AM 73.4 °F - 69.8 °F 88% 30.14 in 10.0 mi Calm Calm - 0.00 in   Clear
4:55 AM 71.6 °F - 69.8 °F 94% 30.14 in 10.0 mi Calm Calm - 0.00 in   Clear
5:15 AM 69.8 °F - 68.0 °F 94% 30.14 in 10.0 mi Calm Calm - 0.00 in   Clear
5:35 AM 69.8 °F - 68.0 °F 94% 30.15 in 5.0 mi Calm Calm - 0.00 in   Clear
5:55 AM 69.8 °F - 66.2 °F 88% 30.15 in 7.0 mi Calm Calm - 0.00 in   Clear
6:15 AM 68.0 °F - 66.2 °F 94% 30.16 in 4.0 mi Calm Calm - 0.00 in   Clear
6:35 AM 69.8 °F - 68.0 °F 94% 30.16 in 5.0 mi Calm Calm - 0.00 in   Clear
6:55 AM 68.0 °F - 66.2 °F 94% 30.17 in 5.0 mi Calm Calm - 0.00 in   Clear
7:15 AM 69.8 °F - 68.0 °F 94% 30.18 in 6.0 mi Calm Calm - 0.00 in   Clear
7:35 AM 73.4 °F - 69.8 °F 88% 30.18 in 8.0 mi Calm Calm - 0.00 in   Clear
7:55 AM 75.2 °F - 69.8 °F 83% 30.18 in 7.0 mi Calm Calm - 0.00 in   Clear
8:15 AM 78.8 °F - 69.8 °F 74% 30.19 in 9.0 mi Calm Calm - 0.00 in   Clear
9:35 AM 78.8 °F - 68.0 °F 69% 30.19 in 10.0 mi SSE 3.5 mph - 0.00 in   Partly Cloudy
9:55 AM 78.8 °F - 66.2 °F 65% 30.19 in 10.0 mi South 8.1 mph - 0.00 in   Partly Cloudy
10:15 AM 80.6 °F 82.7 °F 66.2 °F 61% 30.19 in 10.0 mi South 6.9 mph - 0.00 in   Partly Cloudy
10:35 AM 80.6 °F 82.7 °F 66.2 °F 61% 30.20 in 10.0 mi South 8.1 mph - 0.00 in   Partly Cloudy
12:15 PM 82.4 °F 84.6 °F 66.2 °F 58% 30.20 in 10.0 mi South 6.9 mph - 0.00 in   Clear
12:55 PM 84.2 °F 86.6 °F 66.2 °F 55% 30.20 in 10.0 mi SSE 6.9 mph - 0.00 in   Clear
1:35 PM 82.4 °F 84.6 °F 66.2 °F 58% 30.19 in 10.0 mi South 10.4 mph - 0.00 in   Clear
1:55 PM 84.2 °F 86.6 °F 66.2 °F 55% 30.19 in 10.0 mi South 9.2 mph - 0.00 in   Clear
2:15 PM 84.2 °F 86.6 °F 66.2 °F 55% 30.19 in 10.0 mi South 10.4 mph - 0.00 in   Partly Cloudy
2:35 PM 84.2 °F 86.6 °F 66.2 °F 55% 30.18 in 10.0 mi South 9.2 mph - 0.00 in   Clear
2:55 PM 84.2 °F 86.6 °F 66.2 °F 55% 30.18 in 10.0 mi South 10.4 mph - 0.00 in   Clear
3:15 PM 84.2 °F 86.6 °F 66.2 °F 55% 30.17 in 10.0 mi South 6.9 mph - 0.00 in   Clear
3:35 PM 84.2 °F 87.3 °F 68.0 °F 58% 30.17 in 10.0 mi SSE 9.2 mph - 0.00 in   Clear
3:55 PM 82.4 °F 86.3 °F 69.8 °F 66% 30.16 in 10.0 mi SSE 9.2 mph - 0.00 in   Clear
4:15 PM 82.4 °F 85.4 °F 68.0 °F 62% 30.15 in 10.0 mi South 9.2 mph - 0.00 in   Clear
4:35 PM 82.4 °F 85.4 °F 68.0 °F 62% 30.15 in 10.0 mi SSE 8.1 mph - 0.00 in   Clear
4:55 PM 82.4 °F 86.3 °F 69.8 °F 66% 30.15 in 10.0 mi South 8.1 mph - 0.00 in   Clear
5:15 PM 82.4 °F 86.3 °F 69.8 °F 66% 30.15 in 10.0 mi SSE 8.1 mph - 0.00 in   Clear
5:35 PM 82.4 °F 85.4 °F 68.0 °F 62% 30.15 in 10.0 mi SSE 8.1 mph - 0.00 in   Clear
5:55 PM 80.6 °F 82.7 °F 66.2 °F 61% 30.14 in 10.0 mi SSE 9.2 mph - 0.00 in   Clear
6:35 PM 80.6 °F 83.2 °F 68.0 °F 65% 30.14 in 10.0 mi SSE 6.9 mph - 0.00 in   Clear
6:55 PM 80.6 °F 83.9 °F 69.8 °F 70% 30.14 in 10.0 mi SSE 6.9 mph - 0.00 in   Clear
7:15 PM 78.8 °F - 69.8 °F 74% 30.14 in 10.0 mi South 8.1 mph - 0.00 in   Clear
7:35 PM 78.8 °F - 69.8 °F 74% 30.14 in 10.0 mi SE 5.8 mph - 0.00 in   Clear
8:15 PM 77.0 °F - 69.8 °F 78% 30.14 in 10.0 mi SSE 4.6 mph - 0.00 in   Clear
8:35 PM 75.2 °F - 69.8 °F 83% 30.14 in 10.0 mi SSE 4.6 mph - 0.00 in   Clear
8:55 PM 75.2 °F - 69.8 °F 83% 30.14 in 10.0 mi SSE 3.5 mph - 0.00 in   Clear
9:15 PM 75.2 °F - 69.8 °F 83% 30.15 in 10.0 mi SE 5.8 mph - 0.00 in   Clear
9:35 PM 75.2 °F - 69.8 °F 83% 30.15 in 10.0 mi SSE 5.8 mph - 0.00 in   Clear
9:55 PM 75.2 °F - 69.8 °F 83% 30.16 in 10.0 mi SSE 5.8 mph - 0.00 in   Clear
10:15 PM 75.2 °F - 69.8 °F 83% 30.16 in 10.0 mi SSE 5.8 mph - 0.00 in   Clear
10:35 PM 75.2 °F - 69.8 °F 83% 30.17 in 10.0 mi Calm Calm - 0.00 in   Partly Cloudy
10:55 PM 75.2 °F - 69.8 °F 83% 30.17 in 10.0 mi Calm Calm - 0.00 in   Partly Cloudy
11:15 PM 75.2 °F - 69.8 °F 83% 30.18 in 10.0 mi SSE 4.6 mph - 0.00 in   Clear
11:35 PM 75.2 °F - 69.8 °F 83% 30.18 in 10.0 mi SSE 3.5 mph - 0.00 in   Partly Cloudy
11:55 PM 73.4 °F - 69.8 °F 88% 30.17 in 10.0 mi SSE 4.6 mph - 0.00 in   Clear